SCP
0 0 0 0 0 0 0 0 0 0 0 0 0 0 0 0 0 0 0 0 0 0 0 0 0 0 0 0 0 0 0 0 0 0 0 0 0 0 0 0 0 0 0 0
0 0 0 0 0 0 0 0 0 0 0 0 0 0 0 0 0 0 0 0 0 0 0 0 0 0 0 0 0 0 0 0 0 0 0 0 0 0 0 0 0 0 0 0
0 0 0 0 0 0 0 0 0 0 0 0 0 0 0 0 0 0 0 0 0 0 0 0 0 0 0 0 0 0 0 0 0 0 0 0 0 0 0 0 0 0 0 0
0 0 0 0 0 0 0 0 0 0 0 0 0 0 0 0 0 0 0 0 0 0 0 0 0 0 0 0 0 0 0 0 0 0 0 0 0 0 0 0 0 0 0 0
0 0 0 0 0 0 0 0 0 0 0 0 -0 -0 0 0 0 0 0 0 0 0 0 0 0 0 0 0 0 0 0 0 0 0 0 0 0 0 0 0 0 0 0 0
0 0 0 0 0 0 0 0 0 0 0 0 -0 -0 -0 0 0 0 0 0 0 0 0 0 0 0 0 -0 -0 0 0 0 0 0 0 0 0 0 0 0 0 0 0 0
0 0 0 0 0 0 0 0 0 0 0 0 0 0 0 0 0 0 0 -0 -0 0 0 0 0 0 0 0 0 0 0 0 0 0 0 0 0 0 0 0 0 0 0 0
0 0 0 0 0 0 0 0 0 0 0 0 0 0 0 0 0 0 0 -0 -0 -0 -0 0 0 0 0 0 0 0 0 0 0 0 0 0 0 0 0 0 0 0 0 0
-0 0 0 0 0 0 0 0 0 0 0 0 0 0 0 0 0 0 0 0 0 0 0 0 0 0 0 0 0 0 0 0 0 0 0 0 0 0 0 0 0 0 0 0
-0 0 0 0 0 0 0 0 0 0 0 0 0 0 0 0 0 0 0 0 0 0 0 0 0 0 0 0 0 0 0 0 0 0 0 0 0 0 0 0 0 0 0 0
-0 -0 -0 -0 0 0 0 0 0 0 0 0 0 0 0 0 0 0 0 0 0 0 0 0 0 0 0 0 0 0 0 0 0 0 0 0 0 0 0 0 0 0 0 0
0 -0 -0 -0 0 0 0 0 0 0 0 0 0 0 0 0 0 0 0 0 0 0 0 0 0 0 0 0 0 0 0 0 0 0 0 0 0 0 0 0 0 0 0 0
0 0 0 0 0 0 0 0 0 0 0 0 0 0 0 0 0 0 0 0 0 0 0 0 0 0 0 0 0 0 0 0 0 0 0 0 0 0 0 0 0 0 0 0
0 0 0 0 0 0 0 0 0 0 0 0 0 0 0 0 0 0 0 0 0 0 0 0 0 0 0 0 0 0 0 0 0 0 0 0 0 0 0 0 0 0 0 0
0 0 0 0 0 0 0 0 0 0 0 0 0 0 0 0 0 0 0 0 0 0 0 0 0 0 0 0 0 0 0 0 0 0 0 0 0 0 0 0 0 0 0 0
0 0 0 0 0 0 0 0 0 0 0 0 0 0 0 0 0 0 0 0 0 0 0 0 0 0 0 0 0 0 0 0 0 0 0 0 0 0 0 0 0 0 0 0
0 0 0 0 0 0 0 0 0 0 0 0 0 0 0 0 0 0 0 0 0 0 0 0 0 0 0 0 0 0 0 0 0 0 0 0 0 0 0 0 0 0 0 0
0 0 0 0 0 0 0 0 0 0 0 0 0 0 0 0 0 0 0 0 0 0 0 0 0 0 0 0 0 0 0 0 0 0 0 0 0 0 0 0 0 0 0 0
0 0 0 0 0 0 0 0 0 0 0 0 0 0 0 0 0 0 0 0 0 0 0 0 0 0 0 0 0 0 0 0 0 0 0 0 0 0 0 0 0 0 0 0
0 0 0 0 0 0 0 0 0 0 0 0 0 0 0 0 0 0 0 0 0 0 0 0 0 0 0 0 0 0 0 0 0 0 0 0 0 0 0 0 0 0 0 0
0 0 0 0 0 0 0 0 0 0 0 0 0 0 0 0 0 0 0 0 0 0 0 0 0 0 0 0 0 0 0 0 0 0 0 0 0 0 0 0 0 0 0 0
0 0 0 0 0 0 0 0 0 0 0 0 0 0 0 0 0 0 0 0 0 0 0 0 0 0 0 0 0 0 0 0 0 0 0 0 0 0 0 0 0 0 0 0
0 0 0 0 0 0 0 0 0 0 0 0 0 0 0 0 0 0 0 0 0 0 0 0 0 0 0 0 0 0 0 0 0 0 0 0 0 0 0 0 0 0 0 0
0 0 0 0 0 0 0 0 0 0 0 0 0 0 0 0 0 0 0 0 0 0 0 0 0 0 0 0 0 0 0 0 0 0 0 0 0 0 0 0 0 0 0 0
0 0 0 0 0 0 0 0 0 0 0 0 0 0 0 0 0 0 0 0 0 0 0 0 0 0 0 0 0 0 0 0 0 0 0 0 0 0 0 0 0 0 0 0
0 0 0 0 0 0 0 0 0 0 0 0 0 0 0 0 0 0 0 0 0 0 0 0 0 0 0 0 0 0 0 0 0 0 0 0 0 0 0 0 0 0 0 0
0 0 0 0 0 0 0 0 0 0 0 0 0 0 0 0 0 0 0 0 0 0 0 0 0 0 0 0 0 0 0 0 0 0 0 0 0 0 0 0 0 0 0 0
Wind_Speed
3 9 12 14 15 14 11 7 5 6 7 13 16 14 12 11 12 12 11 9 5 4 4 4 3 2 1 1 3 4 5 3 2 4 4 4 4 4 5 5 6 5 4 4
5 10 13 15 17 15 12 11 9 8 8 13 14 11 12 14 15 15 14 13 12 10 8 8 7 6 5 6 5 5 4 2 2 2 2 2 2 3 3 4 4 4 5 5
3 2 4 11 12 11 9 10 8 8 8 14 15 15 13 13 14 13 12 12 12 11 10 10 9 10 10 9 9 9 8 6 5 5 5 4 3 1 2 3 3 4 5 5
2 4 6 2 4 5 4 8 9 8 9 13 15 12 6 9 12 11 10 10 9 8 8 8 9 9 9 9 9 8 7 6 6 5 5 5 5 4 3 1 2 3 4 5
3 4 3 2 3 4 3 2 7 9 12 14 15 8 5 11 14 8 5 5 5 6 6 7 7 6 7 8 7 7 6 5 5 4 5 5 5 4 3 2 1 2 3 4
4 4 2 3 7 4 2 0 6 9 12 14 13 9 9 16 15 9 4 4 5 5 6 6 5 6 7 6 6 5 4 4 4 4 4 4 4 3 3 2 2 2 1 2
4 3 1 4 6 4 2 4 9 8 9 10 6 5 11 15 12 6 2 3 4 4 4 3 3 5 6 5 4 3 3 3 4 4 4 4 4 3 3 3 3 2 2 2
2 2 3 3 3 2 3 4 5 7 7 8 9 11 11 12 10 6 1 2 3 3 3 3 3 4 4 4 3 2 3 4 4 5 5 5 5 5 5 5 4 4 3 4
3 4 3 1 2 4 4 4 5 5 8 9 9 10 12 10 10 5 2 0 1 2 2 3 3 2 3 4 3 2 4 4 3 4 5 5 6 7 5 6 5 4 4 3
2 1 2 3 3 3 4 5 7 7 8 7 8 10 11 10 8 6 3 1 0 2 2 2 2 2 2 3 3 4 4 2 2 3 4 5 5 5 5 6 5 5 5 4
2 2 2 3 3 4 4 5 6 7 6 6 7 8 7 8 8 7 5 3 1 1 1 1 1 1 2 3 4 4 3 1 2 2 2 3 4 5 5 5 4 3 3 3
5 6 5 4 4 3 3 4 5 5 6 7 6 7 7 7 7 7 6 4 3 2 1 1 2 2 1 1 3 3 2 1 1 1 0 1 1 2 6 5 8 9 7 4
7 6 6 4 2 2 2 3 5 5 5 6 7 6 7 7 7 7 6 5 4 5 4 3 4 4 3 1 3 3 2 1 0 1 1 0 1 1 1 3 5 8 9 8
6 5 3 2 1 1 2 3 4 5 6 6 6 6 7 6 7 8 8 7 6 5 6 5 5 5 5 3 3 3 2 1 1 1 1 1 0 1 1 1 2 3 5 6
6 6 5 2 1 2 2 3 4 5 6 7 6 7 7 8 8 9 9 8 6 4 5 5 5 6 4 4 4 4 3 1 0 1 1 1 2 2 2 2 2 2 3 4
7 6 5 3 1 1 2 3 3 5 6 6 6 8 8 8 8 8 8 6 6 6 6 6 6 6 5 5 5 4 3 3 2 1 1 2 2 2 2 2 2 2 2 3
9 6 4 2 1 1 2 3 3 5 5 6 7 8 8 8 7 8 8 8 7 7 6 5 6 5 6 6 6 4 3 2 2 2 2 2 2 2 2 2 2 2 2 3
9 8 7 5 4 3 3 3 4 5 5 6 7 7 8 8 8 8 9 9 8 7 6 5 4 4 6 6 5 4 4 3 2 2 2 2 2 2 2 2 2 2 1 2
8 8 6 5 4 4 3 4 5 5 6 5 6 7 7 7 8 8 7 7 6 7 8 7 4 4 6 6 6 4 4 4 2 2 2 3 2 2 2 3 2 2 2 2
8 7 6 5 4 3 3 4 4 5 5 4 5 6 7 8 8 8 7 5 4 5 8 7 2 3 5 6 7 4 4 4 3 3 2 2 2 2 2 3 3 2 2 2
9 7 6 5 4 3 3 3 3 4 5 4 4 6 7 8 8 7 6 5 6 7 7 5 0 2 4 5 6 4 4 4 4 3 3 3 3 3 3 3 3 2 2 2
8 7 6 5 4 3 4 3 3 3 4 4 5 6 6 7 8 7 6 5 6 10 6 3 1 3 6 7 4 4 4 4 3 3 3 3 3 3 3 3 3 3 3 3
7 6 6 6 5 4 3 2 2 3 3 4 5 5 5 6 5 5 7 6 6 10 6 3 4 4 10 6 4 4 5 5 4 3 3 3 3 4 4 4 3 3 3 3
7 7 7 6 4 3 3 4 3 3 3 4 4 5 4 4 5 4 5 10 12 11 5 5 5 7 9 4 4 4 4 4 4 3 3 3 3 3 4 4 3 3 3 4
8 7 6 5 5 4 5 4 3 3 3 3 5 6 4 3 4 6 7 8 11 9 4 4 3 8 6 4 5 5 5 4 4 4 4 4 4 4 4 4 4 4 4 4
8 6 6 6 5 5 4 3 3 3 3 3 4 5 5 5 5 5 5 7 9 7 4 3 2 4 3 4 4 5 5 5 5 4 5 5 5 5 4 4 5 4 4 4
6 5 4 4 4 4 4 4 4 4 4 3 4 5 5 5 5 5 6 5 6 5 4 3 2 2 3 3 4 5 5 5 5 5 5 5 4 4 5 6 5 4 4 4
Wind_Direction
52 71 71 45 22 30 47 62 82 83 42 3 347 338 345 1 7 15 14 12 352 316 313 320 324 328 285 198 144 140 133 145 211 255 252 238 224 219 216 211 212 203 201 207
71 87 76 48 23 24 36 40 45 45 24 346 336 342 4 15 19 20 18 20 24 31 36 36 34 35 39 51 71 86 95 84 31 344 327 293 259 223 213 219 221 204 205 206
29 71 60 35 6 8 34 37 26 27 347 334 344 348 0 9 11 15 19 23 28 34 41 44 47 52 56 56 63 69 66 56 43 38 31 9 359 345 259 237 227 216 213 202
54 50 60 329 284 324 3 56 30 4 343 345 338 322 328 11 5 4 14 22 24 30 44 48 54 56 61 63 65 66 62 54 40 36 33 21 22 14 345 294 246 233 225 214
63 76 94 350 340 341 334 31 19 351 345 346 340 335 344 355 352 346 5 27 32 37 49 53 55 60 66 62 62 63 57 50 40 38 34 21 11 353 336 327 300 257 241 219
56 73 51 307 311 318 225 317 3 345 338 341 353 12 334 329 332 332 2 36 42 42 48 50 45 58 62 54 52 50 43 37 31 31 28 13 353 336 325 320 306 297 285 237
56 78 298 274 307 345 57 312 315 316 317 326 336 287 289 310 320 321 349 65 67 58 51 44 48 61 56 41 27 13 29 36 26 17 11 5 351 343 340 348 1 14 25 20
60 48 289 298 20 47 251 266 283 292 297 304 304 303 310 318 322 323 319 74 77 61 30 12 38 58 42 11 331 358 35 41 29 20 16 14 10 6 7 12 24 26 37 36
172 205 234 219 210 231 229 260 273 276 289 299 306 311 318 322 328 326 288 318 73 79 28 4 14 49 26 336 338 46 56 52 44 36 26 22 25 19 15 18 25 25 32 36
113 218 211 229 254 257 238 246 268 277 287 296 303 311 321 330 338 340 318 308 66 89 42 1 355 19 11 357 41 88 86 70 50 46 35 30 29 26 28 21 18 23 28 28
159 215 225 288 285 273 268 279 290 297 296 304 312 319 324 332 336 337 324 303 252 139 91 300 280 342 10 43 75 87 91 71 41 48 57 49 45 33 27 25 16 20 19 21
200 209 189 243 265 278 300 306 309 318 325 327 329 327 331 332 333 336 337 323 284 249 205 207 215 250 293 77 107 113 97 59 356 356 41 98 86 52 35 32 30 38 41 40
176 187 188 219 265 307 319 328 332 333 329 328 328 327 329 326 326 330 331 329 289 258 242 218 210 228 240 180 124 131 142 168 313 347 356 203 189 171 24 10 24 33 34 39
167 155 167 196 248 325 347 338 337 336 330 325 320 322 324 322 323 328 324 314 293 262 245 229 216 225 226 190 141 144 149 135 104 357 359 27 146 160 135 79 16 356 3 17
174 163 171 171 104 26 2 351 350 339 330 326 321 323 325 326 323 319 315 319 316 280 250 236 227 230 211 177 152 153 155 156 98 26 25 68 88 92 92 91 66 17 358 356
160 144 136 117 71 360 349 349 340 325 322 319 321 322 319 315 311 310 316 328 333 301 267 244 235 226 191 172 157 156 171 177 145 95 67 86 97 98 96 95 79 51 25 356
145 153 153 164 226 272 295 302 302 304 308 313 313 316 319 321 324 326 328 328 319 298 275 252 243 217 183 173 163 165 169 171 131 94 100 112 118 122 123 118 104 74 17 2
160 167 174 184 200 230 274 295 300 305 302 301 311 322 326 326 323 319 318 320 325 326 313 286 254 201 178 171 163 159 159 161 149 136 127 119 124 131 130 127 123 102 40 33
156 164 178 195 203 208 232 266 283 292 298 307 319 320 317 313 310 310 313 323 333 328 314 311 280 188 174 173 156 149 152 156 150 141 133 125 114 118 129 135 136 124 102 77
160 167 183 201 203 205 241 268 284 296 301 309 319 323 324 320 319 320 320 314 297 284 294 301 271 174 172 167 151 144 149 153 152 148 140 134 134 136 139 142 143 134 122 110
167 177 191 198 211 235 257 274 286 295 302 313 320 318 315 315 320 324 325 320 312 321 326 330 9 168 169 158 148 139 144 146 148 150 150 150 150 146 143 140 139 137 130 120
172 186 199 201 208 238 265 275 273 282 301 315 321 323 324 324 326 326 313 284 294 316 325 316 289 194 172 154 141 142 144 146 148 147 146 151 153 151 151 150 146 139 131 126
175 187 197 203 209 226 259 270 268 283 294 303 312 317 315 309 311 319 318 307 308 312 311 282 267 205 163 148 145 146 148 149 153 157 159 160 160 156 155 155 150 143 138 134
175 187 199 204 199 204 239 257 268 276 280 289 296 303 305 311 312 302 289 302 311 311 298 280 261 180 156 147 148 149 154 157 159 157 155 154 154 152 152 152 147 141 137 134
178 185 191 188 194 214 229 243 271 285 295 299 301 304 301 286 285 299 308 312 317 320 308 294 236 171 155 152 157 161 165 170 168 160 156 155 156 155 156 155 151 145 142 140
177 184 191 195 198 204 209 214 231 253 265 286 295 298 303 305 306 309 313 322 330 331 321 302 251 177 164 164 168 171 171 170 166 163 164 162 161 159 158 157 151 148 146 144
179 182 185 202 216 210 206 207 217 233 233 240 270 287 299 308 313 318 324 330 337 336 325 302 267 221 196 181 173 171 168 166 164 164 165 165 164 165 163 159 153 148 146 148